[[{"header":{"parameterUnit":"m.s-1","parameterCategory":2,"la1":30.2991,"la2":30.254,"lo1":-89.0895,"lo2":-89.0444,"dy":0.0017,"dx":0.0017,"nx":28,"ny":28,"refTime":"2024-03-11T03:00:00:Z","depth":"0","parameterNumber":2,"parameterNumberName":"U-component_of_CURRENTS"},"data":[0,0,0,0,0,0,0,0,0,0,0,0,0,0,0,0,0,0,0,0,0,0,0,0,0,0,0,0,0,0,0,0,0,0,0,0,0,0,0,0,0,0,0,0,0,0,0,0,0,0,0,0,0,0,0,0,0,0,0.2521,0.2522,0,0.2555,0.2555,0.2556,0.2558,0.2558,0.2557,0.2557,0.2589,0.259,0.2591,0,0,0,0,0,0,0,0,0,0,0,0,0,0.2496,0.2496,0.2521,0.2522,0.2522,0.2555,0.2555,0.2556,0.2558,0.2558,0.2557,0.2557,0.2588,0.259,0.2591,0,0,0,0,0,0,0,0,0,0,0,0,0,0.2516,0.2496,0.2521,0.2527,0.2528,0.2555,0.2555,0.2556,0.2558,0.2558,0.2557,0.2556,0.2588,0.259,0.2591,0.2613,0,0,0.2597,0.2598,0,0,0,0,0,0,0,0,0.2514,0.2516,0.2526,0.2527,0.2528,0.2552,0.2558,0.2575,0.2558,0.2547,0.2557,0.2556,0.2577,0.258,0.2587,0.2615,0.2616,0.2597,0.2598,0.2599,0.2599,0,0,0,0,0,0,0,0.2513,0.2515,0.2534,0.2527,0.2528,0.2541,0.2543,0.2561,0.2564,0.2547,0.2548,0.2552,0.2577,0.2585,0.2588,0.2616,0.2597,0.2599,0.26,0.26,0.2685,0.2686,0,0,0,0,0,0,0.2508,0.2514,0.2533,0.2535,0.252,0.2542,0.2544,0.2545,0.2564,0.2566,0.2553,0.2552,0.2582,0.2585,0.2589,0.2631,0.2599,0.2601,0.2602,0.2683,0.2685,0.2686,0,0,0,0,0,0,0.2507,0.2509,0.2532,0.2526,0.253,0.2543,0.2544,0.2546,0.2553,0.2568,0.257,0.2558,0.2582,0.2586,0.2618,0.2632,0.2601,0.2603,0.2682,0.2684,0.2685,0.2706,0,0,0,0,0,0,0.2506,0.2509,0.2512,0.2525,0.253,0.2551,0.2544,0.2547,0.2557,0.2557,0.2574,0.2576,0.2582,0.2615,0.262,0.2634,0.2604,0.2681,0.2683,0.2685,0.2704,0.2709,0.2713,0,0,0,0,0,0.2505,0.2506,0.2512,0.2515,0.2532,0.2552,0.2556,0.2563,0.2558,0.2567,0.2584,0.2575,0.2632,0.2618,0.2623,0.2638,0.2679,0.2682,0.2685,0.2702,0.2708,0.2712,0,0,0,0,0,0,0.249,0.2507,0.2513,0.2518,0.2537,0.2552,0.2562,0.2565,0.2585,0.2587,0.2594,0.2599,0.2632,0.2635,0.262,0.2669,0.2653,0.2657,0.2665,0.267,0.2674,0.2671,0.2606,0,0,0,0,0,0.2491,0.25,0.2518,0.2524,0.2535,0.255,0.2559,0.2567,0.2584,0.2592,0.2603,0.2621,0.2647,0.2658,0.268,0.2708,0.272,0.272,0.2724,0.2728,0.273,0.276,0.2767,0.2695,0.2695,0.2695,0,0,0.2484,0.2497,0.25,0.2522,0.2538,0.2556,0.2554,0.2573,0.2589,0.2594,0.2619,0.2638,0.266,0.2694,0.2708,0.2697,0.2758,0.2731,0.2734,0.2734,0.2764,0.2771,0.2777,0.2697,0.2696,0.2696,0,0,0.2479,0.2492,0.2499,0.2519,0.2547,0.2563,0.2568,0.259,0.2602,0.2633,0.2644,0.2673,0.2703,0.2725,0.2739,0.2779,0.2781,0.2784,0.28,0.283,0.2836,0.2841,0.2878,0.2886,0.2783,0.2783,0.2783,0,0.2471,0.2484,0.2505,0.2522,0.2541,0.2565,0.2583,0.2602,0.263,0.265,0.2643,0.2706,0.2718,0.2768,0.278,0.2788,0.2807,0.2777,0.2834,0.284,0.2845,0.2881,0.289,0.2785,0.2784,0.2784,0.2784,0,0.2473,0.2489,0.2497,0.2529,0.2554,0.2574,0.2608,0.2633,0.265,0.2671,0.2722,0.2747,0.2783,0.2792,0.2797,0.2844,0.2849,0.2837,0.2818,0.2853,0.2889,0.2898,0.2786,0.2786,0.2786,0.2785,0,0,0.2438,0.2489,0.2491,0.2506,0.2562,0.2574,0.2622,0.2668,0.2692,0.2727,0.2763,0.2809,0.2822,0.284,0.2854,0.2876,0.2929,0.287,0.2871,0.2901,0.3005,0.3004,0.3014,0.2926,0.2927,0.2928,0.3021,0,0.2434,0.246,0.2495,0.2523,0.254,0.2592,0.2627,0.2674,0.2718,0.2758,0.2801,0.2839,0.2841,0.2859,0.2887,0.292,0.2951,0.2905,0.2972,0.2974,0.2964,0.3024,0.2909,0.2981,0.3029,0.3031,0.3032,0,0.2422,0.2443,0.2472,0.2519,0.2532,0.2556,0.2625,0.2662,0.274,0.2776,0.2836,0.2866,0.2926,0.2906,0.2992,0.2964,0.2988,0.3007,0.301,0.3006,0.299,0.2952,0.2995,0.2936,0.3045,0.3044,0.3043,0,0.2379,0.2423,0.2445,0.2462,0.2523,0.2549,0.2586,0.2666,0.2711,0.2791,0.2835,0.2904,0.295,0.299,0.3052,0.3019,0.3141,0.3098,0.3126,0.3126,0.304,0.303,0.3025,0.3153,0.3153,0.3152,0.3152,0,0.2361,0.2369,0.2421,0.2429,0.2455,0.2512,0.2559,0.2612,0.2701,0.2761,0.2836,0.2904,0.2972,0.3054,0.3079,0.3154,0.3173,0.3147,0.3155,0.3046,0.3037,0.2989,0.2954,0.3156,0.3155,0.3154,0.3154,0,0.231,0.2348,0.2365,0.2419,0.2437,0.2454,0.2541,0.2579,0.267,0.2756,0.2785,0.2923,0.3031,0.3111,0.3196,0.3202,0.3174,0.3275,0.3154,0.3146,0.3075,0.3045,0.2945,0.2855,0.3297,0.3298,0.3298,0,0.2282,0.229,0.2341,0.2354,0.2379,0.242,0.2456,0.2553,0.2609,0.277,0.2809,0.2953,0.3054,0.3209,0.3247,0.3314,0.3209,0.3234,0.314,0.3076,0.3049,0.2919,0.2839,0.304,0.3039,0.3037,0.3036,0,0.2222,0.2247,0.2267,0.2295,0.2326,0.2366,0.2426,0.2468,0.2592,0.2674,0.2799,0.2894,0.3076,0.3117,0.3232,0.3246,0.3074,0.3207,0.3161,0.2873,0.2708,0.2623,0.2988,0.3024,0.3025,0.3026,0.3027,0.3027,0.2164,0.2167,0.2194,0.2218,0.2256,0.2287,0.2289,0.2376,0.2449,0.2545,0.271,0.281,0.2961,0.3109,0.3119,0.3065,0.3017,0.2958,0.2939,0.2823,0.2687,0.3042,0.3073,0.3074,0.3075,0.3076,0.3077,0,0.2063,0.2084,0.2109,0.2125,0.2128,0.2184,0.2242,0.2236,0.2276,0.2422,0.252,0.2682,0.2765,0.2866,0.2917,0.2822,0.266,0.273,0.2505,0.2448,0.2792,0.2733,0.2666,0.2666,0.2666,0.2666,0.2666,0.2666,0.2008,0.1989,0.2011,0.1979,0.1997,0.1964,0.1973,0.1999,0.2074,0.2158,0.225,0.2391,0.2627,0.2758,0.2725,0.2647,0.243,0.2307,0.2301,0.2547,0.2565,0.2583,0.2519,0.2409,0.2408,0.1836,0.1832,0.1829]},{"header":{"parameterUnit":"m.s-1","parameterCategory":2,"la1":30.2991,"la2":30.254,"lo1":-89.0895,"lo2":-89.0444,"dy":0.0017,"dx":0.0017,"nx":28,"ny":28,"refTime":"2024-03-11T03:00:00:Z","depth":"0","parameterNumber":3,"parameterNumberName":"V-component_of_CURRENTS"},"data":[0,0,0,0,0,0,0,0,0,0,0,0,0,0,0,0,0,0,0,0,0,0,0,0,0,0,0,0,0,0,0,0,0,0,0,0,0,0,0,0,0,0,0,0,0,0,0,0,0,0,0,0,0,0,0,0,0,0,0.0121,0.0121,0,0.0055,0.0054,0.0053,-0.0004,-0.0005,-0.0005,-0.0006,-0.0181,-0.0185,-0.0189,0,0,0,0,0,0,0,0,0,0,0,0,0,0.0165,0.0164,0.0121,0.0121,0.012,0.0055,0.0054,0.0053,-0.0004,-0.0005,-0.0005,-0.0006,-0.0179,-0.0184,-0.019,0,0,0,0,0,0,0,0,0,0,0,0,0,0.0125,0.0164,0.0121,0.0085,0.0082,0.0055,0.0054,0.0052,-0.0004,-0.0005,-0.0006,-0.0006,-0.0178,-0.0184,-0.019,-0.0217,0,0,-0.021,-0.0213,0,0,0,0,0,0,0,0,0.0127,0.0123,0.0091,0.0088,0.0084,0.0035,0.0005,-0.0042,-0.0004,0.0026,-0.0006,-0.0006,-0.0117,-0.0128,-0.0141,-0.0225,-0.0232,-0.021,-0.0214,-0.0217,-0.0219,0,0,0,0,0,0,0,0.013,0.0125,0.0093,0.0091,0.0086,0.0061,0.0055,-0.0004,-0.0045,0.0023,0.002,0.0016,-0.012,-0.0135,-0.0146,-0.0235,-0.021,-0.0216,-0.022,-0.0222,-0.0338,-0.0338,0,0,0,0,0,0,0.0145,0.0128,0.0095,0.0091,0.0107,0.0061,0.0054,0.0049,-0.0042,-0.0055,0.0017,0.0014,-0.0123,-0.0138,-0.0152,-0.0171,-0.0217,-0.0223,-0.0227,-0.0339,-0.0338,-0.0337,0,0,0,0,0,0,0.0147,0.0143,0.0097,0.011,0.0102,0.0062,0.0056,0.0048,0.0036,-0.0045,-0.0061,0.0014,-0.0124,-0.0143,-0.0188,-0.0179,-0.0226,-0.0232,-0.034,-0.0339,-0.0338,-0.0221,0,0,0,0,0,0,0.0148,0.0144,0.0146,0.0111,0.0102,0.0088,0.0057,0.0048,0.0036,0.0031,-0.0053,-0.007,-0.0126,-0.0178,-0.0194,-0.0189,-0.0237,-0.0341,-0.034,-0.0338,-0.0226,-0.0216,-0.0208,0,0,0,0,0,0.015,0.0156,0.0146,0.0142,0.0106,0.0089,0.0083,0.0049,0.0037,0.0035,-0.0012,-0.0068,-0.0181,-0.0182,-0.0202,-0.0198,-0.0342,-0.034,-0.0338,-0.023,-0.0218,-0.0208,0,0,0,0,0,0,0.0176,0.015,0.0138,0.0137,0.0119,0.0081,0.0077,0.0058,0.0021,0.0016,-0.006,-0.0079,-0.0116,-0.0171,-0.017,-0.0227,-0.0271,-0.0273,-0.0182,-0.0171,-0.0162,-0.0145,-0.0242,0,0,0,0,0,0.0185,0.0183,0.0155,0.0155,0.0149,0.0116,0.0106,0.0087,0.0051,0.0035,-0.0019,-0.0077,-0.0124,-0.0156,-0.021,-0.0243,-0.0278,-0.0253,-0.0243,-0.0235,-0.0234,-0.0266,-0.026,-0.0332,-0.0332,-0.0332,0,0,0.0195,0.0182,0.018,0.0161,0.0143,0.0143,0.0108,0.01,0.0098,0.002,-0.0001,-0.005,-0.0125,-0.0156,-0.0178,-0.0201,-0.0229,-0.0233,-0.0226,-0.0229,-0.0264,-0.0257,-0.025,-0.0331,-0.0331,-0.0331,0,0,0.0221,0.0205,0.0213,0.0201,0.0184,0.0166,0.017,0.014,0.0124,0.0102,0.0051,0.0018,-0.0063,-0.0104,-0.0138,-0.0113,-0.0178,-0.0135,-0.008,-0.0111,-0.0105,-0.01,-0.0112,-0.0109,-0.0132,-0.0132,-0.0132,0,0.0236,0.024,0.0214,0.0219,0.0217,0.0184,0.0196,0.0177,0.0138,0.013,0.0108,0.0024,-0.0037,-0.0069,-0.0057,-0.0093,-0.0115,-0.0112,-0.0097,-0.0094,-0.0091,-0.0105,-0.0103,-0.0126,-0.0127,-0.0127,-0.0128,0,0.0266,0.0269,0.0274,0.0271,0.0267,0.0271,0.0247,0.0241,0.0222,0.0201,0.0173,0.0107,0.0056,0.0036,-0.0006,-0.0015,-0.0037,-0.0077,-0.0119,-0.0076,-0.0094,-0.0094,-0.0118,-0.012,-0.0122,-0.0123,0,0,0.0301,0.0297,0.0299,0.0309,0.0295,0.0298,0.03,0.0294,0.0304,0.0263,0.0267,0.02,0.017,0.0131,0.0078,0.0053,0.0063,0.0005,0.0,0.0004,0.0012,0.0015,0.0013,0.0027,0.0027,0.0027,0.0002,0,0.0334,0.0362,0.0348,0.0377,0.0391,0.0365,0.0371,0.0361,0.0347,0.0341,0.0282,0.0259,0.0203,0.0188,0.0157,0.0081,0.0062,0.0074,-0.0041,-0.0044,-0.0039,0.0013,0.0017,-0.0004,0.0,0.0,0.0,0,0.0369,0.0385,0.0418,0.0435,0.0439,0.0448,0.0463,0.0467,0.0446,0.0435,0.0407,0.0356,0.0315,0.026,0.0169,0.018,0.0109,0.0052,0.0049,0.0006,-0.0043,-0.0054,-0.0006,-0.0153,-0.0002,-0.0002,-0.0001,0,0.0414,0.0436,0.0467,0.047,0.048,0.0491,0.05,0.0494,0.0515,0.0497,0.0507,0.0441,0.0419,0.032,0.021,0.0186,0.0114,0.0059,-0.0003,-0.0004,-0.0046,-0.005,-0.0149,-0.0004,-0.0004,-0.0004,-0.0004,0,0.0453,0.0479,0.049,0.0505,0.055,0.054,0.0587,0.0584,0.0596,0.0643,0.056,0.058,0.0433,0.037,0.0249,0.0141,0.0143,0.0021,-0.0008,-0.0003,-0.0002,-0.0173,-0.0264,-0.0005,-0.0005,-0.0004,-0.0004,0,0.0492,0.0496,0.0538,0.0559,0.057,0.0604,0.065,0.0688,0.0688,0.0746,0.0745,0.069,0.0621,0.0476,0.0332,0.0208,0.0005,0.0044,0.0075,0.005,-0.0157,-0.0241,-0.0379,-0.0447,-0.0034,-0.0034,-0.0034,0,0.0512,0.0536,0.058,0.0614,0.0623,0.0673,0.0712,0.0733,0.0785,0.0828,0.0862,0.0811,0.0814,0.0605,0.0376,0.0182,0.0024,0.0035,-0.002,-0.0152,-0.0267,-0.0331,-0.0384,-0.0025,-0.0025,-0.0025,-0.0025,0,0.0553,0.0566,0.06,0.0669,0.0716,0.0784,0.0844,0.0901,0.0948,0.1011,0.1087,0.1095,0.0902,0.0719,0.0436,0.0274,-0.0073,0.003,-0.0127,-0.0277,-0.0335,-0.0419,-0.0015,-0.0024,-0.0024,-0.0025,-0.0025,-0.0025,0.0583,0.0616,0.0662,0.073,0.0795,0.0889,0.0959,0.1048,0.1162,0.1276,0.1268,0.132,0.1019,0.0641,0.0398,-0.0059,-0.0071,-0.0207,-0.0296,-0.0347,-0.0419,0.0004,-0.0029,-0.0029,-0.0029,-0.0029,-0.0029,0,0.0618,0.0657,0.0722,0.0807,0.0891,0.0918,0.1045,0.1135,0.1294,0.1416,0.1504,0.1404,0.1021,0.0605,0.0006,-0.0322,-0.046,-0.051,-0.0619,-0.0658,-0.0299,-0.0305,-0.0375,-0.0374,-0.0374,-0.0374,-0.0374,-0.0374,0.0638,0.0701,0.0734,0.0871,0.0938,0.1061,0.1144,0.1295,0.1414,0.1585,0.1643,0.1661,0.1349,0.027,-0.0488,-0.0672,-0.0899,-0.0945,-0.1062,-0.0843,-0.0822,-0.0802,-0.0829,-0.1008,-0.1009,-0.1382,-0.1386,-0.1389]}],[{"header":{"parameterUnit":"m.s-1","parameterCategory":2,"la1":30.2991,"la2":30.254,"lo1":-89.0895,"lo2":-89.0444,"dy":0.0017,"dx":0.0017,"nx":28,"ny":28,"refTime":"2024-03-11T03:00:00:Z","depth":"2","parameterNumber":2,"parameterNumberName":"U-component_of_CURRENTS"},"data":[0,0,0,0,0,0,0,0,0,0,0,0,0,0,0,0,0,0,0,0,0,0,0,0,0,0,0,0,0,0,0,0,0,0,0,0,0,0,0,0,0,0,0,0,0,0,0,0,0,0,0,0,0,0,0,0,0,0,0.2101,0.2101,0,0.2146,0.2147,0.2148,0.2178,0.2178,0.2178,0.2178,0.2354,0.2359,0.2364,0,0,0,0,0,0,0,0,0,0,0,0,0,0.2078,0.2078,0.2101,0.2101,0.2101,0.2146,0.2147,0.2148,0.2178,0.2178,0.2178,0.2178,0.2353,0.2358,0.2364,0,0,0,0,0,0,0,0,0,0,0,0,0,0.2104,0.2078,0.2101,0.2121,0.2123,0.2146,0.2147,0.2148,0.2178,0.2178,0.2178,0.2178,0.2351,0.2358,0.2365,0.2407,0,0,0.2386,0.2389,0,0,0,0,0,0,0,0,0.2102,0.2105,0.2117,0.2119,0.2122,0.2155,0.2203,0.224,0.2178,0.2159,0.2178,0.2178,0.2299,0.231,0.2319,0.2415,0.2423,0.2387,0.2391,0.2394,0.2396,0,0,0,0,0,0,0,0.2101,0.2103,0.2121,0.2118,0.212,0.214,0.2144,0.221,0.2232,0.2161,0.2163,0.2165,0.2301,0.2312,0.2324,0.2425,0.2387,0.2393,0.2397,0.24,0.2521,0.252,0,0,0,0,0,0,0.2089,0.2101,0.2119,0.2122,0.211,0.214,0.2144,0.2146,0.2228,0.2239,0.2165,0.2166,0.23,0.2316,0.233,0.2401,0.2394,0.24,0.2404,0.2522,0.2521,0.252,0,0,0,0,0,0,0.2088,0.209,0.2117,0.2111,0.2116,0.214,0.2142,0.2147,0.2169,0.2229,0.2243,0.2183,0.2301,0.2321,0.2358,0.2408,0.2404,0.241,0.2523,0.2521,0.252,0.2533,0,0,0,0,0,0,0.2087,0.209,0.21,0.211,0.2116,0.2141,0.2142,0.2147,0.2168,0.2171,0.225,0.2265,0.2302,0.2347,0.2365,0.2417,0.2415,0.2524,0.2522,0.2521,0.2533,0.2532,0.253,0,0,0,0,0,0.2087,0.2092,0.21,0.2103,0.2124,0.2141,0.2147,0.2165,0.2169,0.2185,0.2203,0.2263,0.2349,0.2351,0.2373,0.2429,0.2525,0.2523,0.2521,0.2534,0.2532,0.253,0,0,0,0,0,0,0.2082,0.2096,0.2105,0.2113,0.2132,0.2146,0.2162,0.2172,0.2199,0.2206,0.2253,0.2269,0.2326,0.2354,0.2355,0.2447,0.2448,0.245,0.2451,0.245,0.2448,0.2465,0.2421,0,0,0,0,0,0.2086,0.2096,0.2112,0.2119,0.2131,0.215,0.2162,0.2177,0.2195,0.2208,0.2252,0.2292,0.2332,0.2368,0.241,0.2467,0.2484,0.2509,0.2508,0.2507,0.2528,0.2552,0.2556,0.2512,0.2512,0.2512,0,0,0.2082,0.2093,0.2098,0.212,0.2136,0.2155,0.2159,0.2183,0.2207,0.2227,0.2274,0.2299,0.234,0.2392,0.2422,0.2427,0.2523,0.2504,0.2504,0.2526,0.255,0.2555,0.2559,0.2511,0.2511,0.2511,0,0,0.2079,0.2095,0.2107,0.2125,0.2154,0.2169,0.2177,0.2204,0.223,0.2268,0.2279,0.2311,0.2388,0.2415,0.244,0.2454,0.2511,0.2476,0.2502,0.2524,0.2529,0.2533,0.2549,0.2554,0.248,0.248,0.248,0,0.2082,0.2094,0.2113,0.2132,0.215,0.2173,0.2195,0.2223,0.2258,0.2286,0.2288,0.2363,0.2402,0.2453,0.2454,0.2462,0.2475,0.2514,0.2526,0.2531,0.2536,0.255,0.2557,0.2481,0.2481,0.2481,0.2481,0,0.2086,0.2104,0.2112,0.2144,0.217,0.2191,0.2229,0.2263,0.2295,0.2325,0.2386,0.2409,0.245,0.247,0.2479,0.2532,0.253,0.2521,0.2541,0.2542,0.2555,0.2562,0.2481,0.2481,0.2481,0.2481,0,0,0.2068,0.211,0.2112,0.213,0.2182,0.2195,0.225,0.2303,0.2338,0.2385,0.2427,0.2487,0.2498,0.2522,0.2533,0.2562,0.26,0.2563,0.2564,0.2596,0.2649,0.2605,0.2608,0.2597,0.2599,0.26,0.2642,0,0.2069,0.2095,0.2126,0.2155,0.2174,0.2223,0.2264,0.2319,0.2376,0.2421,0.2465,0.2512,0.2518,0.2539,0.2565,0.2602,0.262,0.259,0.2629,0.2631,0.2607,0.2616,0.2427,0.2445,0.2649,0.265,0.2651,0,0.2066,0.2084,0.2114,0.2161,0.2175,0.2201,0.2276,0.232,0.2401,0.2449,0.2504,0.2536,0.2595,0.2581,0.2654,0.2637,0.2646,0.2664,0.2666,0.2633,0.26,0.2478,0.245,0.2662,0.2661,0.266,0.2659,0,0.2031,0.2075,0.2097,0.2112,0.2171,0.2203,0.2242,0.2329,0.2386,0.2469,0.2521,0.2576,0.2621,0.2648,0.2699,0.2682,0.2767,0.2738,0.2701,0.2698,0.2551,0.2532,0.2771,0.2771,0.2771,0.2771,0.277,0,0.2018,0.2031,0.2079,0.2086,0.2119,0.2176,0.2236,0.2292,0.2384,0.2448,0.2524,0.2581,0.2646,0.2701,0.2714,0.2743,0.2778,0.272,0.2712,0.2545,0.2527,0.2726,0.272,0.2772,0.2772,0.2771,0.2771,0,0.1978,0.2009,0.2031,0.2085,0.2104,0.2129,0.2227,0.2269,0.2373,0.2458,0.249,0.2611,0.2685,0.2733,0.2791,0.2773,0.2793,0.2782,0.2585,0.2553,0.27,0.2694,0.2744,0.2743,0.2742,0.2741,0.2741,0,0.1958,0.1964,0.2014,0.2028,0.2055,0.2106,0.2141,0.2248,0.2303,0.2471,0.2497,0.2616,0.2669,0.2749,0.274,0.2746,0.2782,0.2566,0.2495,0.2714,0.2701,0.2696,0.2692,0.2296,0.2291,0.2288,0.2285,0,0.1916,0.1937,0.1953,0.1979,0.2012,0.205,0.2111,0.2152,0.228,0.2356,0.2454,0.2518,0.2618,0.2552,0.2584,0.2557,0.2551,0.2496,0.278,0.2337,0.2296,0.2282,0.2291,0.2254,0.2258,0.226,0.2261,0.2263,0.1878,0.188,0.1898,0.192,0.1952,0.1971,0.1975,0.2041,0.2099,0.2183,0.2313,0.2346,0.2397,0.2348,0.2287,0.2247,0.2409,0.2299,0.2307,0.232,0.2265,0.2226,0.2161,0.2163,0.2165,0.2167,0.2169,0,0.1812,0.1821,0.1836,0.1845,0.1838,0.1891,0.1929,0.1907,0.1915,0.2022,0.2079,0.1963,0.1949,0.1995,0.1901,0.1913,0.1872,0.1826,0.1752,0.1786,0.1815,0.1732,0.1487,0.1485,0.1482,0.148,0,0,0.1775,0.1753,0.176,0.1717,0.173,0.1693,0.1693,0.1673,0.1708,0.1695,0.171,0.1867,0.1958,0.1692,0.1668,0.156,0.1651,0.1502,0.2058,0.2006,0.2032,0.211,0.2024,0,0,0,0,0]},{"header":{"parameterUnit":"m.s-1","parameterCategory":2,"la1":30.2991,"la2":30.254,"lo1":-89.0895,"lo2":-89.0444,"dy":0.0017,"dx":0.0017,"nx":28,"ny":28,"refTime":"2024-03-11T03:00:00:Z","depth":"2","parameterNumber":3,"parameterNumberName":"V-component_of_CURRENTS"},"data":[0,0,0,0,0,0,0,0,0,0,0,0,0,0,0,0,0,0,0,0,0,0,0,0,0,0,0,0,0,0,0,0,0,0,0,0,0,0,0,0,0,0,0,0,0,0,0,0,0,0,0,0,0,0,0,0,0,0,0.0097,0.0097,0,0.0043,0.0043,0.0042,-0.0,-0.0001,-0.0001,-0.0001,-0.0161,-0.0165,-0.0169,0,0,0,0,0,0,0,0,0,0,0,0,0,0.0129,0.0129,0.0097,0.0097,0.0096,0.0043,0.0043,0.0042,-0.0,-0.0001,-0.0001,-0.0001,-0.016,-0.0165,-0.0169,0,0,0,0,0,0,0,0,0,0,0,0,0,0.0098,0.0129,0.0097,0.007,0.0067,0.0044,0.0042,0.0041,-0.0,-0.0001,-0.0001,-0.0001,-0.0158,-0.0164,-0.017,-0.0199,0,0,-0.0189,-0.0191,0,0,0,0,0,0,0,0,0.01,0.0096,0.0074,0.0072,0.0069,0.0029,-0.0005,-0.0044,-0.0,0.0024,-0.0001,-0.0002,-0.0106,-0.0116,-0.0126,-0.0207,-0.0214,-0.0189,-0.0193,-0.0195,-0.0197,0,0,0,0,0,0,0,0.0102,0.0098,0.0074,0.0074,0.007,0.0049,0.0044,-0.0012,-0.0041,0.0022,0.0019,0.0015,-0.0109,-0.012,-0.0131,-0.0216,-0.0189,-0.0194,-0.0198,-0.02,-0.028,-0.0278,0,0,0,0,0,0,0.0114,0.0101,0.0076,0.0073,0.0085,0.0049,0.0043,0.0041,-0.0039,-0.005,0.0016,0.0014,-0.011,-0.0124,-0.0137,-0.0153,-0.0195,-0.0201,-0.0204,-0.0281,-0.0279,-0.0278,0,0,0,0,0,0,0.0115,0.0112,0.0078,0.0087,0.0081,0.0049,0.0046,0.004,0.003,-0.0042,-0.0055,0.0012,-0.0111,-0.0128,-0.0152,-0.016,-0.0204,-0.0209,-0.0283,-0.028,-0.0278,-0.02,0,0,0,0,0,0,0.0116,0.0113,0.0114,0.0088,0.0081,0.0069,0.0047,0.0039,0.0029,0.0026,-0.0049,-0.0064,-0.0112,-0.0143,-0.0158,-0.0169,-0.0214,-0.0285,-0.0282,-0.0279,-0.0205,-0.0196,-0.0188,0,0,0,0,0,0.0117,0.0123,0.0115,0.0111,0.0084,0.007,0.0064,0.0039,0.003,0.0028,0.0002,-0.0062,-0.0137,-0.0146,-0.0165,-0.0178,-0.0286,-0.0283,-0.0279,-0.0208,-0.0197,-0.0188,0,0,0,0,0,0,0.0138,0.0118,0.0109,0.0108,0.0093,0.0063,0.006,0.0045,0.0023,0.002,-0.0043,-0.0059,-0.0084,-0.013,-0.0139,-0.0187,-0.0223,-0.0223,-0.0163,-0.0153,-0.0145,-0.0135,-0.0219,0,0,0,0,0,0.0144,0.0143,0.0121,0.0121,0.0116,0.009,0.0081,0.0066,0.0044,0.0034,-0.0013,-0.0054,-0.0086,-0.0115,-0.0153,-0.0185,-0.022,-0.0202,-0.0194,-0.0187,-0.0188,-0.0223,-0.0218,-0.0266,-0.0266,-0.0267,0,0,0.0152,0.0142,0.014,0.0126,0.0111,0.0111,0.0083,0.0075,0.0075,0.0017,0.0003,-0.003,-0.0082,-0.0105,-0.0123,-0.0148,-0.0187,-0.0182,-0.0176,-0.0181,-0.0219,-0.0215,-0.0211,-0.0264,-0.0265,-0.0265,0,0,0.0172,0.016,0.0166,0.0156,0.0141,0.0129,0.0131,0.0106,0.0094,0.0083,0.005,0.0027,-0.0035,-0.0066,-0.0091,-0.006,-0.0135,-0.0078,-0.0044,-0.0077,-0.0074,-0.0072,-0.0096,-0.0097,-0.0082,-0.0082,-0.0081,0,0.0182,0.0187,0.0166,0.017,0.0169,0.0142,0.0152,0.0137,0.011,0.0107,0.0088,0.0034,-0.0017,-0.0037,-0.0022,-0.0047,-0.007,-0.0081,-0.0068,-0.0066,-0.0066,-0.0091,-0.0093,-0.0077,-0.0078,-0.0078,-0.0079,0,0.0205,0.0208,0.0213,0.0211,0.0209,0.0212,0.0194,0.0189,0.0175,0.0159,0.0142,0.0093,0.0059,0.004,0.0013,-0.0002,-0.0021,-0.0048,-0.0097,-0.0056,-0.0085,-0.0089,-0.0071,-0.0073,-0.0074,-0.0075,0,0,0.023,0.0229,0.0231,0.0242,0.0232,0.0236,0.024,0.0238,0.0249,0.0213,0.0218,0.0168,0.0143,0.0116,0.0075,0.0042,0.003,0.0004,0.0001,-0.0025,-0.0035,-0.0049,-0.0055,0.0005,0.0004,0.0004,-0.0052,0,0.0256,0.028,0.027,0.0298,0.0311,0.0293,0.0302,0.0296,0.0286,0.0282,0.0232,0.0218,0.0171,0.0159,0.0122,0.0056,0.0023,0.0048,-0.0066,-0.0069,-0.0093,-0.0059,-0.0034,-0.0083,-0.0056,-0.0057,-0.0057,0,0.0283,0.0298,0.0328,0.0349,0.0353,0.0364,0.0383,0.0389,0.0374,0.0366,0.0342,0.0302,0.0257,0.0209,0.011,0.013,0.0056,-0.0001,-0.0005,-0.0052,-0.009,-0.0122,-0.0091,-0.0063,-0.0063,-0.0062,-0.0062,0,0.0319,0.0341,0.0371,0.0374,0.039,0.0402,0.0413,0.0414,0.0435,0.042,0.0429,0.0367,0.0343,0.0243,0.0127,0.0118,0.0016,-0.0018,-0.0101,-0.0102,-0.0122,-0.0125,-0.0092,-0.0092,-0.0092,-0.0092,-0.0092,0,0.0352,0.0376,0.0389,0.0404,0.0449,0.0444,0.049,0.0491,0.0505,0.0546,0.0476,0.0488,0.035,0.0274,0.0155,0.0026,0.0033,-0.0089,-0.0118,-0.0091,-0.0091,-0.0112,-0.0113,-0.0094,-0.0094,-0.0093,-0.0093,0,0.0383,0.0389,0.0428,0.0453,0.0465,0.0498,0.0546,0.0582,0.0585,0.0634,0.0633,0.0581,0.0487,0.034,0.0184,0.0072,-0.0061,-0.0112,-0.0065,-0.0088,-0.0164,-0.0161,-0.021,-0.0211,-0.0212,-0.0213,-0.0213,0,0.0401,0.0422,0.0466,0.0496,0.0508,0.0557,0.0596,0.0621,0.0668,0.07,0.0729,0.0656,0.0621,0.0385,0.0176,-0.0033,-0.0063,-0.0151,-0.0174,-0.0153,-0.0176,-0.0171,-0.0167,-0.0164,-0.0164,-0.0164,-0.0164,0,0.0437,0.0449,0.0481,0.0544,0.059,0.0652,0.071,0.0761,0.0806,0.0844,0.0886,0.0857,0.0646,0.0441,0.0154,0.0017,-0.0117,-0.016,-0.0152,-0.0136,-0.0114,-0.0135,-0.0132,-0.0165,-0.0165,-0.0165,-0.0165,-0.0165,0.0466,0.0495,0.0536,0.0597,0.0658,0.074,0.08,0.0871,0.0954,0.102,0.0998,0.0963,0.0735,0.0369,0.0122,-0.0131,-0.0124,-0.0215,-0.0213,-0.0211,-0.0193,-0.0174,-0.0233,-0.0233,-0.0233,-0.0234,-0.0234,0,0.0501,0.0532,0.0588,0.0663,0.0735,0.0763,0.0873,0.0935,0.104,0.1097,0.1124,0.0917,0.0677,0.0411,0.003,-0.0199,-0.0208,-0.0264,-0.023,-0.0227,-0.0225,-0.0207,-0.0251,-0.0252,-0.0253,-0.0253,0,0,0.0521,0.0574,0.0599,0.0713,0.0771,0.0876,0.0945,0.1037,0.1103,0.1154,0.1143,0.1089,0.0765,0.0488,0.0178,-0.0042,-0.0078,-0.0077,-0.0037,0.0043,0.0048,-0.017,-0.0136,0,0,0,0,0]}],[{"header":{"parameterUnit":"m.s-1","parameterCategory":2,"la1":30.2991,"la2":30.254,"lo1":-89.0895,"lo2":-89.0444,"dy":0.0017,"dx":0.0017,"nx":28,"ny":28,"refTime":"2024-03-11T03:00:00:Z","depth":"4","parameterNumber":2,"parameterNumberName":"U-component_of_CURRENTS"},"data":[0,0,0,0,0,0,0,0,0,0,0,0,0,0,0,0,0,0,0,0,0,0,0,0,0,0,0,0,0,0,0,0,0,0,0,0,0,0,0,0,0,0,0,0,0,0,0,0,0,0,0,0,0,0,0,0,0,0,0.1259,0.1259,0,0.127,0.127,0.1269,0.1276,0.1277,0.1277,0.1278,0.1143,0.1139,0.1135,0,0,0,0,0,0,0,0,0,0,0,0,0,0.1207,0.1208,0.1258,0.1259,0.126,0.127,0.127,0.1269,0.1276,0.1277,0.1277,0.1278,0.1144,0.114,0.1135,0,0,0,0,0,0,0,0,0,0,0,0,0,0.122,0.1208,0.1258,0.1268,0.127,0.127,0.127,0.1269,0.1276,0.1277,0.1277,0.1278,0.1146,0.114,0.1134,0.1081,0,0,0.1115,0.1113,0,0,0,0,0,0,0,0,0.1219,0.1221,0.1266,0.1268,0.1269,0.1277,0.1203,0.1201,0.1276,0.1268,0.1278,0.1279,0.1177,0.1169,0.1163,0.1074,0.1069,0.1115,0.1111,0.1108,0.1107,0,0,0,0,0,0,0,0.1219,0.1221,0.1258,0.1267,0.1269,0.1261,0.1263,0.1202,0.1211,0.1269,0.1271,0.128,0.1176,0.117,0.116,0.1067,0.1115,0.111,0.1106,0.1103,0.1115,0.1119,0,0,0,0,0,0,0.1229,0.122,0.1257,0.1259,0.1252,0.1261,0.1264,0.1269,0.1215,0.121,0.1279,0.128,0.118,0.1167,0.1155,0.1197,0.1109,0.1103,0.1099,0.1111,0.1116,0.112,0,0,0,0,0,0,0.1228,0.1232,0.1257,0.1244,0.1247,0.1262,0.1268,0.1269,0.1292,0.1226,0.1217,0.1305,0.118,0.1164,0.1181,0.1187,0.11,0.1094,0.1106,0.1113,0.1118,0.121,0,0,0,0,0,0,0.1226,0.1231,0.1246,0.1245,0.1249,0.1274,0.1268,0.1269,0.1298,0.13,0.1244,0.1231,0.1179,0.1191,0.1175,0.1177,0.109,0.1101,0.1109,0.1116,0.1202,0.1218,0.1232,0,0,0,0,0,0.1224,0.1236,0.1247,0.1252,0.1266,0.1275,0.1276,0.1285,0.1299,0.1308,0.1319,0.1234,0.1226,0.119,0.1169,0.117,0.1098,0.1107,0.1116,0.1195,0.1215,0.1232,0,0,0,0,0,0,0.1225,0.1239,0.125,0.1268,0.1282,0.1279,0.1296,0.1304,0.1318,0.1332,0.1276,0.1264,0.1277,0.1236,0.1197,0.1209,0.115,0.1155,0.1217,0.1235,0.125,0.1228,0.1085,0,0,0,0,0,0.1233,0.1247,0.1259,0.1279,0.129,0.13,0.1311,0.132,0.133,0.1338,0.1311,0.1301,0.1292,0.1279,0.1254,0.125,0.1221,0.1249,0.1264,0.1276,0.1255,0.1269,0.1282,0.1149,0.1149,0.1149,0,0,0.1243,0.1253,0.1263,0.1281,0.1295,0.1308,0.1308,0.1335,0.1348,0.1316,0.1338,0.134,0.131,0.1322,0.1322,0.1287,0.131,0.1288,0.1298,0.1269,0.128,0.1292,0.1302,0.1156,0.1154,0.1153,0,0,0.1257,0.1278,0.1291,0.1304,0.1333,0.1336,0.1354,0.1371,0.1383,0.1409,0.1409,0.1439,0.1403,0.14,0.1388,0.1474,0.1392,0.1473,0.1513,0.1529,0.1538,0.1546,0.1555,0.1563,0.1477,0.1478,0.1478,0,0.1269,0.1285,0.1299,0.1314,0.133,0.1354,0.1372,0.1383,0.1408,0.1421,0.1429,0.1452,0.1432,0.1451,0.1504,0.1495,0.1499,0.1435,0.1543,0.155,0.1556,0.1563,0.157,0.1483,0.1482,0.1482,0.1481,0,0.1283,0.1306,0.1319,0.1343,0.1361,0.1384,0.1403,0.1427,0.1453,0.1463,0.1502,0.1515,0.153,0.1542,0.1543,0.1589,0.1577,0.1558,0.148,0.1573,0.1577,0.1583,0.1491,0.1489,0.1487,0.1486,0,0,0.1281,0.1319,0.1328,0.1341,0.138,0.139,0.1424,0.1448,0.1473,0.1505,0.1539,0.157,0.1598,0.1594,0.161,0.1631,0.1702,0.1627,0.1625,0.1607,0.1745,0.1663,0.1661,0.1708,0.1709,0.171,0.1739,0,0.129,0.1316,0.1337,0.1369,0.1383,0.1415,0.1441,0.147,0.1499,0.1538,0.1566,0.1608,0.161,0.1651,0.1673,0.1696,0.1718,0.1696,0.1681,0.168,0.1571,0.1664,0.1713,0.1742,0.1743,0.1744,0.1745,0,0.129,0.1307,0.1341,0.1376,0.1388,0.1417,0.1462,0.1488,0.1542,0.1569,0.1616,0.1649,0.1709,0.1703,0.1748,0.1741,0.1753,0.1756,0.1757,0.1638,0.1607,0.1627,0.1754,0.1753,0.1752,0.1752,0.1751,0,0.1262,0.1305,0.1332,0.1346,0.1394,0.1423,0.1456,0.1506,0.1536,0.161,0.1648,0.1701,0.1757,0.177,0.1806,0.1791,0.1841,0.1813,0.1738,0.1733,0.1749,0.174,0.1832,0.1832,0.1832,0.1832,0.1832,0,0.1243,0.1266,0.1328,0.1341,0.1378,0.142,0.1468,0.1505,0.1575,0.1611,0.1679,0.1714,0.1784,0.1825,0.1826,0.1804,0.1859,0.1746,0.1735,0.1796,0.1792,0.1754,0.1745,0.1833,0.1833,0.1833,0.1832,0,0.1203,0.1246,0.1278,0.1342,0.1368,0.1398,0.1477,0.1501,0.1579,0.1633,0.1672,0.1759,0.1808,0.1852,0.189,0.183,0.1816,0.1795,0.1872,0.1865,0.1687,0.1683,0.1693,0.1691,0.1688,0.1687,0.1685,0,0.118,0.1196,0.1275,0.1297,0.1333,0.1387,0.1419,0.1499,0.1524,0.1633,0.1648,0.1752,0.1794,0.1772,0.1824,0.1817,0.1795,0.1771,0.1707,0.1685,0.1674,0.1673,0.1672,0.1681,0.1681,0.168,0.168,0,0.1133,0.1179,0.1207,0.1257,0.1299,0.1328,0.1382,0.1395,0.1481,0.1571,0.1596,0.1627,0.1683,0.1711,0.1742,0.1723,0.1773,0.1747,0.175,0.169,0.1671,0.1662,0.1663,0.1672,0.1673,0.1674,0.1674,0,0.1106,0.1114,0.1164,0.1196,0.1243,0.1245,0.1283,0.1311,0.1353,0.1472,0.148,0.1572,0.167,0.1663,0.1676,0.1675,0.1633,0.1558,0.157,0.1579,0.1529,0.1488,0.1426,0,0,0,0,0,0.1067,0.1065,0.109,0.1112,0.1154,0.1182,0.1241,0.1279,0.1368,0.1354,0.1414,0.1457,0.149,0.1537,0.1512,0.1619,0.1639,0.158,0.1558,0.1629,0.1638,0.1591,0,0,0,0,0,0,0.1037,0.1061,0.1062,0.1036,0.1038,0.1066,0.1102,0.1164,0.1159,0.1263,0.1292,0.1374,0.1433,0.1501,0.1489,0.1503,0.1458,0.1646,0.1642,0.1624,0.1632,0.1639,0.1594,0,0,0,0,0]},{"header":{"parameterUnit":"m.s-1","parameterCategory":2,"la1":30.2991,"la2":30.254,"lo1":-89.0895,"lo2":-89.0444,"dy":0.0017,"dx":0.0017,"nx":28,"ny":28,"refTime":"2024-03-11T03:00:00:Z","depth":"4","parameterNumber":3,"parameterNumberName":"V-component_of_CURRENTS"},"data":[0,0,0,0,0,0,0,0,0,0,0,0,0,0,0,0,0,0,0,0,0,0,0,0,0,0,0,0,0,0,0,0,0,0,0,0,0,0,0,0,0,0,0,0,0,0,0,0,0,0,0,0,0,0,0,0,0,0,0.0117,0.0117,0,0.0094,0.0094,0.0094,0.0084,0.0084,0.0084,0.0084,0.0163,0.0165,0.0167,0,0,0,0,0,0,0,0,0,0,0,0,0,0.0132,0.0132,0.0117,0.0117,0.0116,0.0094,0.0094,0.0094,0.0084,0.0084,0.0084,0.0084,0.0163,0.0165,0.0168,0,0,0,0,0,0,0,0,0,0,0,0,0,0.0119,0.0132,0.0117,0.0109,0.0108,0.0094,0.0094,0.0093,0.0084,0.0084,0.0084,0.0084,0.0162,0.0165,0.0168,0.0186,0,0,0.0177,0.0179,0,0,0,0,0,0,0,0,0.012,0.0119,0.011,0.0109,0.0108,0.0092,0.0128,0.0129,0.0084,0.0093,0.0084,0.0084,0.0149,0.0153,0.0147,0.0189,0.0193,0.0178,0.018,0.0181,0.0182,0,0,0,0,0,0,0,0.0121,0.0119,0.0108,0.011,0.0109,0.01,0.0098,0.0128,0.0123,0.0093,0.0092,0.0089,0.0149,0.0144,0.0149,0.0194,0.0178,0.018,0.0182,0.0183,0.0238,0.0237,0,0,0,0,0,0,0.0124,0.012,0.0109,0.0107,0.0114,0.0099,0.0098,0.0097,0.012,0.0123,0.0089,0.0089,0.0139,0.0146,0.0152,0.0174,0.0181,0.0184,0.0186,0.0238,0.0238,0.0237,0,0,0,0,0,0,0.0125,0.0124,0.011,0.0113,0.0111,0.0099,0.0099,0.0097,0.0096,0.0117,0.0121,0.0091,0.0139,0.0148,0.0161,0.0178,0.0185,0.0188,0.0239,0.0238,0.0237,0.0219,0,0,0,0,0,0,0.0125,0.0124,0.0127,0.0113,0.0111,0.0107,0.0099,0.0096,0.0094,0.0094,0.012,0.0127,0.014,0.0156,0.0164,0.0182,0.019,0.0239,0.0238,0.0238,0.0221,0.0218,0.0216,0,0,0,0,0,0.0126,0.013,0.0127,0.0126,0.0115,0.0107,0.0105,0.0097,0.0094,0.0096,0.0096,0.0126,0.0157,0.0157,0.0167,0.0187,0.024,0.0239,0.0238,0.0221,0.0219,0.0216,0,0,0,0,0,0,0.0139,0.0129,0.0126,0.0127,0.012,0.0106,0.0106,0.01,0.01,0.0103,0.0119,0.0125,0.0141,0.0162,0.0162,0.0197,0.0205,0.0206,0.019,0.0188,0.0185,0.0198,0.0193,0,0,0,0,0,0.0143,0.0145,0.0133,0.0135,0.0132,0.012,0.0117,0.0112,0.0108,0.0108,0.0122,0.0136,0.0144,0.0163,0.0175,0.0201,0.0191,0.0219,0.0216,0.0215,0.0229,0.0196,0.0192,0.0234,0.0234,0.0234,0,0,0.0149,0.0144,0.0145,0.0138,0.0132,0.0134,0.0119,0.0117,0.0121,0.012,0.0133,0.013,0.0145,0.0159,0.0172,0.0183,0.0194,0.0214,0.0212,0.0228,0.0194,0.019,0.0186,0.0233,0.0234,0.0234,0,0,0.0161,0.0157,0.0162,0.0158,0.0151,0.0146,0.0148,0.0137,0.0135,0.0142,0.0132,0.0129,0.0162,0.016,0.0168,0.0166,0.0176,0.018,0.0194,0.016,0.0156,0.0153,0.0121,0.0115,0.0188,0.0188,0.0188,0,0.0168,0.0174,0.0163,0.0167,0.0169,0.0155,0.0164,0.0159,0.0153,0.0156,0.015,0.0155,0.0162,0.017,0.0161,0.0164,0.0145,0.0202,0.0157,0.0154,0.0151,0.0119,0.0113,0.0187,0.0187,0.0187,0.0187,0,0.0182,0.0189,0.0192,0.0196,0.0197,0.0201,0.0194,0.0196,0.0194,0.0189,0.0189,0.0173,0.018,0.0176,0.0172,0.0161,0.0153,0.0148,0.0163,0.0145,0.0113,0.0106,0.0186,0.0186,0.0186,0.0187,0,0,0.0195,0.0202,0.0204,0.0215,0.0214,0.0219,0.0227,0.0232,0.0243,0.0228,0.0234,0.0221,0.0206,0.0212,0.0196,0.0168,0.0115,0.0155,0.0153,0.0123,0.0039,0.0034,0.0026,0.0099,0.0098,0.0097,0.0019,0,0.0211,0.0232,0.023,0.0254,0.0266,0.026,0.0273,0.0275,0.0273,0.0274,0.0247,0.0249,0.0223,0.0221,0.0185,0.0139,0.0101,0.0138,0.0062,0.006,0.0058,0.002,0.0095,0.0015,0.0013,0.0012,0.0011,0,0.0227,0.0242,0.0268,0.0293,0.0298,0.031,0.0332,0.0341,0.0335,0.0333,0.0318,0.0296,0.0261,0.0234,0.0144,0.0168,0.0106,0.006,0.0056,0.006,0.0044,0.004,0.0,0.0001,0.0002,0.0003,0.0003,0,0.0247,0.027,0.0297,0.0302,0.0324,0.0339,0.0354,0.0361,0.038,0.037,0.0377,0.0328,0.0309,0.0225,0.0135,0.0136,0.0025,0.0015,-0.0052,-0.0053,-0.0016,-0.0011,-0.0061,-0.0061,-0.0061,-0.0061,-0.006,0,0.0265,0.0287,0.031,0.0323,0.0364,0.0369,0.0409,0.0414,0.0428,0.0453,0.0411,0.0407,0.0305,0.0233,0.014,0.0028,0.0026,-0.0054,-0.0075,-0.0024,-0.0019,-0.0022,-0.0016,-0.0064,-0.0063,-0.0062,-0.0062,0,0.0279,0.0292,0.0327,0.0359,0.0373,0.0404,0.0451,0.0479,0.0487,0.0513,0.0513,0.0464,0.0371,0.0259,0.0121,0.0045,-0.0066,-0.0109,-0.0045,-0.0061,-0.0127,-0.0121,-0.0192,-0.0193,-0.0194,-0.0194,-0.0195,0,0.0288,0.0306,0.0354,0.0381,0.0398,0.0444,0.0479,0.0507,0.0537,0.0546,0.0558,0.0485,0.0434,0.0243,0.0116,-0.0066,-0.0093,-0.0153,-0.0144,-0.0127,-0.0141,-0.0134,-0.0128,-0.0196,-0.0196,-0.0196,-0.0197,0,0.0305,0.0322,0.0352,0.0408,0.0451,0.0504,0.0552,0.0578,0.0609,0.0615,0.0596,0.0502,0.0395,0.0246,0.0105,-0.0026,-0.0113,-0.0161,-0.016,-0.0152,-0.0132,-0.0144,-0.0137,-0.0199,-0.0199,-0.0198,-0.0198,0,0.032,0.0343,0.0382,0.0432,0.0491,0.0546,0.057,0.0603,0.0633,0.0639,0.0627,0.0517,0.0454,0.0265,0.0134,0.0007,-0.0029,-0.0071,-0.0076,-0.0074,-0.0017,0.0027,-0.0012,0,0,0,0,0,0.0333,0.0358,0.0403,0.0459,0.0518,0.0553,0.0613,0.0633,0.0657,0.0651,0.0644,0.0544,0.0361,0.0282,0.0153,0.0105,-0.0061,-0.0051,-0.0114,-0.0213,-0.021,-0.0163,0,0,0,0,0,0,0.0342,0.0383,0.0401,0.0474,0.0514,0.0583,0.0624,0.0641,0.0637,0.064,0.0547,0.0507,0.0327,0.0434,0.0149,0.011,0.0051,-0.0135,-0.0138,-0.0215,-0.0212,-0.021,-0.016,0,0,0,0,0]}]]